TimePDT,TemperatureF,Dew PointF,Humidity,Sea Level PressureIn,VisibilityMPH,Wind Direction,Wind SpeedMPH,Gust SpeedMPH,PrecipitationIn,Events,Conditions,WindDirDegrees,DateUTC
12:53 AM,75.0,37.0,25,29.80,10.0,WSW,5.8,-,N/A,,Clear,240,2012-05-17 07:53:00
1:53 AM,73.9,37.0,26,29.78,10.0,WSW,10.4,-,N/A,,Clear,250,2012-05-17 08:53:00
2:53 AM,68.0,37.0,32,29.78,10.0,WSW,6.9,-,N/A,,Clear,250,2012-05-17 09:53:00
3:53 AM,69.1,35.1,29,29.78,10.0,SSW,3.5,-,N/A,,Clear,210,2012-05-17 10:53:00
4:53 AM,62.1,35.1,37,29.78,10.0,SSW,8.1,-,N/A,,Clear,210,2012-05-17 11:53:00
5:53 AM,66.0,36.0,33,29.78,10.0,SW,8.1,-,N/A,,Clear,230,2012-05-17 12:53:00
6:53 AM,73.0,36.0,26,29.79,10.0,SSW,6.9,-,N/A,,Clear,210,2012-05-17 13:53:00
7:53 AM,79.0,33.1,19,29.78,10.0,Calm,Calm,-,N/A,,Clear,0,2012-05-17 14:53:00
8:53 AM,84.0,28.9,14,29.77,10.0,West,12.7,-,N/A,,Clear,280,2012-05-17 15:53:00
9:53 AM,87.1,27.0,11,29.77,10.0,West,11.5,-,N/A,,Clear,260,2012-05-17 16:53:00
10:53 AM,90.0,26.1,10,29.75,10.0,West,18.4,24.2,N/A,,Clear,270,2012-05-17 17:53:00
11:53 AM,91.0,28.9,11,29.74,10.0,WSW,16.1,20.7,N/A,,Clear,250,2012-05-17 18:53:00
12:53 PM,91.9,34.0,13,29.74,10.0,WSW,21.9,28.8,N/A,,Clear,240,2012-05-17 19:53:00
1:53 PM,91.0,37.0,15,29.73,10.0,WSW,21.9,-,N/A,,Clear,240,2012-05-17 20:53:00
2:53 PM,90.0,41.0,18,29.73,10.0,WSW,17.3,25.3,N/A,,Clear,240,2012-05-17 21:53:00
3:53 PM,89.1,44.1,21,29.71,10.0,WSW,16.1,24.2,N/A,,Clear,240,2012-05-17 22:53:00
4:53 PM,84.0,48.0,28,29.70,10.0,WSW,25.3,36.8,N/A,,Clear,240,2012-05-17 23:53:00
5:53 PM,81.0,46.0,29,29.70,10.0,SW,25.3,39.1,N/A,,Clear,230,2012-05-18 00:53:00
6:53 PM,75.9,48.9,38,29.70,10.0,SW,23.0,-,N/A,,Clear,220,2012-05-18 01:53:00
7:53 PM,73.0,48.9,42,29.71,10.0,SW,19.6,-,N/A,,Clear,230,2012-05-18 02:53:00
8:53 PM,70.0,44.1,39,29.73,10.0,SW,20.7,-,N/A,,Clear,220,2012-05-18 03:53:00
9:53 PM,69.1,41.0,36,29.75,10.0,SW,17.3,-,N/A,,Clear,230,2012-05-18 04:53:00
10:53 PM,68.0,32.0,26,29.75,10.0,West,18.4,-,N/A,,Clear,260,2012-05-18 05:53:00
11:53 PM,66.0,28.0,24,29.76,10.0,West,23.0,31.1,N/A,,Clear,270,2012-05-18 06:53:00